Temperature
26 23 22 23 23 24 25 24 23 23 23 22 20 19 19 18 18 17 17 17 18 18 18 18 19 19 19 19 19 18 18 18 18 18 18 18 17 17 17 17 17 16 16 16
23 23 25 26 26 26 25 24 23 23 23 21 20 19 19 18 18 18 18 17 18 18 18 18 18 18 19 18 18 18 18 18 18 18 18 17 17 17 17 16 16 16 16 16
24 25 27 28 27 26 25 24 24 22 22 21 20 19 19 19 19 19 18 18 18 18 19 18 19 19 18 18 18 18 18 18 18 18 17 17 17 17 16 16 16 16 16 15
25 27 27 27 27 26 24 25 24 23 20 19 20 18 19 18 18 18 18 18 18 19 19 19 19 18 18 18 18 18 18 18 18 17 17 17 17 17 16 16 16 15 15 15
25 26 27 27 27 26 24 24 23 21 19 18 19 18 18 18 18 18 18 19 19 19 19 19 19 19 19 19 18 18 18 18 17 17 17 17 16 16 16 15 15 15 15 15
25 26 26 27 27 26 24 22 20 18 18 18 19 18 18 18 18 19 19 19 20 20 20 20 19 19 19 19 18 18 18 18 17 17 17 16 16 16 15 15 15 15 14 14
25 25 26 26 25 25 24 20 19 20 18 18 19 19 18 19 20 19 19 20 20 20 20 20 19 19 19 19 19 18 18 17 17 17 16 16 16 15 15 15 14 14 14 14
23 23 25 26 25 24 24 21 20 20 19 18 18 18 19 21 21 21 21 20 20 20 20 20 20 20 20 19 19 18 18 17 17 16 16 16 15 15 15 14 14 14 13 13
22 23 26 26 26 25 24 22 20 19 19 18 18 19 20 21 20 20 20 20 21 21 21 21 20 20 20 19 19 19 18 18 17 16 16 15 15 15 14 14 14 13 13 13
23 23 25 26 25 25 24 22 19 19 19 18 19 19 18 20 19 20 20 20 21 21 21 21 21 20 20 20 19 19 18 18 17 16 16 16 15 15 14 14 14 13 13 12
23 23 24 24 24 24 23 22 20 18 18 18 18 18 20 20 20 20 20 21 21 21 21 21 21 21 20 20 19 19 18 18 17 17 16 16 15 15 14 14 13 13 13 12
23 20 21 22 23 24 23 22 20 19 19 18 18 19 22 21 21 21 22 22 22 22 22 22 21 20 20 20 19 19 18 18 17 17 16 16 15 15 14 14 13 13 13 12
23 20 20 21 21 22 22 22 20 18 17 17 18 20 22 21 21 22 23 23 23 22 22 21 21 21 20 20 19 19 18 18 18 17 16 16 15 15 14 14 13 13 13 12
22 20 20 21 21 21 22 23 22 19 18 18 19 20 21 21 21 21 23 23 23 22 22 21 21 21 20 20 20 19 19 18 18 17 16 16 15 15 14 14 13 13 12 12
21 21 21 22 22 22 22 23 23 21 20 20 20 20 21 21 21 22 23 23 22 22 22 22 21 21 21 20 20 19 19 18 18 17 17 16 15 15 14 14 13 13 12 12
19 20 21 22 23 23 23 24 23 23 23 22 22 21 21 22 22 22 22 22 21 22 22 22 22 21 21 20 20 19 19 18 18 17 17 16 15 15 14 14 14 13 13 12
18 19 20 20 21 22 22 22 23 23 22 22 21 21 20 20 20 21 22 22 22 22 22 22 22 22 21 21 20 20 19 19 18 17 17 16 16 15 15 14 14 13 13 12
18 18 17 18 20 21 21 22 23 22 21 21 21 20 21 21 23 23 24 23 23 23 23 23 22 22 22 21 20 20 19 18 18 17 17 16 16 15 15 14 14 13 13 13
17 17 17 17 19 20 21 21 21 21 20 20 20 20 21 22 22 22 23 24 24 24 24 23 23 22 22 21 20 20 19 18 18 17 17 16 16 15 15 14 14 14 13 13
17 17 17 17 19 20 20 21 21 21 20 19 19 19 20 21 19 20 23 24 24 24 24 23 23 22 21 21 20 20 19 18 18 17 17 16 16 15 15 15 14 14 13 13
18 17 17 17 18 19 19 20 21 20 19 19 19 19 20 19 20 22 23 23 24 24 24 23 23 22 21 21 20 19 19 19 18 17 17 16 16 15 15 14 14 13 13 13
17 17 16 16 17 18 18 18 18 18 18 19 20 21 21 22 22 23 23 23 23 23 23 23 22 22 21 20 20 19 19 19 18 17 16 16 16 15 15 14 14 13 13 13
17 17 16 16 17 17 18 18 19 19 19 19 20 21 21 21 21 22 22 22 23 23 23 22 22 21 21 20 20 19 19 18 18 17 16 16 16 15 15 14 14 13 13 13
17 16 16 16 16 16 18 19 19 20 20 20 20 20 20 20 21 21 21 21 22 22 22 22 21 21 20 20 19 19 18 18 17 17 16 16 15 15 15 14 14 13 13 13
17 17 16 16 16 16 18 19 20 20 20 19 19 19 20 20 20 20 20 20 21 21 21 20 20 20 19 19 18 18 17 17 17 16 16 15 15 15 14 14 14 13 13 13
16 17 16 16 16 16 18 19 19 19 19 19 19 19 19 19 19 19 19 19 19 19 19 19 19 18 18 18 17 17 17 16 16 16 15 15 14 14 14 13 13 13 13 13
Wind_Speed
3 1 7 11 10 10 6 2 1 1 2 4 6 5 4 4 5 6 6 7 7 6 5 5 7 8 8 7 7 6 7 6 5 4 4 3 2 2 2 2 4 5 6 6
4 8 16 13 10 6 2 0 0 2 3 5 5 3 3 5 7 8 9 9 10 8 7 7 7 7 8 7 6 6 6 6 5 3 3 3 3 2 2 2 3 4 5 5
9 12 10 6 4 1 1 2 3 5 4 4 5 2 1 2 5 6 7 7 9 11 10 9 8 7 8 8 7 7 6 6 5 4 3 4 4 4 3 2 1 1 2 3
8 9 7 4 4 1 2 2 6 7 5 1 2 1 4 3 4 6 7 7 9 10 10 9 10 9 9 8 7 7 7 6 5 5 5 5 4 3 1 1 0 1 2 1
6 6 4 4 4 1 2 3 6 6 5 3 3 2 4 2 5 8 10 10 11 11 12 11 11 10 9 9 9 8 7 6 5 6 6 7 5 3 2 2 3 3 3 3
8 6 4 4 3 3 7 6 6 6 5 3 1 1 4 4 7 9 11 12 12 12 11 11 10 10 9 9 9 8 8 6 6 7 7 7 7 5 4 4 3 2 2 3
7 7 5 2 2 1 4 5 4 5 5 2 2 1 7 7 8 10 12 12 13 12 12 12 11 11 10 10 10 9 9 7 6 7 7 7 7 6 6 4 3 2 1 1
3 7 5 3 5 5 3 7 6 4 3 2 2 3 7 6 8 10 11 11 13 13 13 14 14 13 12 12 11 10 9 8 7 7 6 6 6 5 4 4 4 3 2 2
6 7 5 4 2 5 3 3 7 6 3 2 3 5 6 1 6 9 12 13 14 14 15 15 14 13 13 13 12 12 11 9 8 8 7 6 6 6 5 5 4 3 3 3
8 5 5 3 2 1 5 5 6 5 5 2 3 4 5 7 9 10 12 14 15 14 15 14 13 13 12 12 11 11 11 10 9 8 7 6 7 7 6 4 4 4 3 2
4 4 3 2 1 3 2 2 5 5 6 6 4 7 8 13 13 13 14 15 17 16 16 14 13 12 12 12 12 11 10 9 8 8 7 7 6 6 6 5 5 4 3 3
3 5 1 4 4 2 3 5 6 5 3 5 5 7 7 13 14 14 14 14 14 15 15 15 14 13 12 12 12 11 10 10 9 8 7 7 6 6 5 5 5 4 4 4
4 6 3 6 7 4 0 2 5 6 5 5 5 6 4 8 10 12 13 13 12 14 14 13 13 13 13 12 12 11 10 10 9 8 8 7 6 6 6 6 5 5 5 4
3 4 6 8 8 6 4 4 4 6 5 5 8 8 6 9 11 11 11 12 13 16 16 14 13 13 13 12 12 11 10 10 9 9 8 8 7 7 7 6 6 6 5 5
4 3 3 5 5 4 6 7 6 6 8 9 9 9 12 13 14 13 12 12 14 15 16 16 15 13 12 11 11 11 10 10 9 9 8 8 8 7 7 6 6 6 5 5
4 4 1 3 4 4 6 7 6 6 5 7 6 8 9 7 7 9 12 15 17 17 17 16 15 14 14 14 12 11 10 10 9 9 9 8 7 7 7 7 6 5 5 5
3 5 3 3 4 5 6 5 4 3 2 3 6 8 3 6 10 13 14 15 16 17 16 16 16 16 15 14 13 12 11 9 9 9 8 8 8 8 7 7 6 5 5 5
6 5 4 2 2 4 8 4 2 1 3 3 0 1 5 8 10 10 11 14 15 16 16 15 14 13 11 11 11 11 10 10 9 8 8 7 8 8 7 6 6 6 5 5
5 6 4 3 3 5 6 4 1 1 3 6 4 2 1 4 6 1 5 11 15 16 14 14 14 12 11 11 11 11 10 9 9 8 8 8 8 8 7 7 6 6 5 5
4 5 5 3 2 5 6 6 4 4 2 5 3 4 3 6 4 4 5 6 9 10 10 11 10 9 11 10 11 11 10 9 9 9 8 8 8 8 8 8 7 6 5 6
2 2 3 3 4 6 5 5 3 4 4 4 1 2 3 3 6 6 4 5 7 8 9 10 11 11 11 11 11 11 10 10 10 8 7 7 7 7 7 6 5 6 6 6
4 3 3 3 3 7 3 1 3 5 2 0 1 1 1 0 3 1 3 5 6 7 8 10 11 10 9 10 11 10 10 9 7 7 7 7 7 6 5 6 6 6 6 6
3 5 4 5 5 4 2 3 3 4 3 1 1 1 2 2 1 2 2 3 5 7 8 9 10 9 7 8 10 11 9 6 6 6 7 6 6 6 5 6 6 6 5 6
2 2 3 1 3 2 2 2 2 2 3 2 1 1 2 2 1 0 0 1 2 4 6 6 8 8 7 6 7 7 6 6 6 6 6 5 5 6 6 5 6 6 6 6
5 3 3 2 3 2 3 4 3 4 4 5 5 6 5 5 3 2 2 2 3 3 4 5 6 6 6 5 5 4 4 6 5 5 5 5 5 6 6 6 7 8 8 9
3 5 7 6 8 6 5 4 4 5 5 6 8 8 6 5 4 3 3 3 4 5 5 5 4 4 3 4 3 2 3 4 4 4 4 4 4 5 5 6 7 10 12 15
Wind_Direction
291 105 250 248 228 225 238 241 267 254 145 101 116 128 146 129 138 155 167 171 173 182 171 159 149 145 134 127 131 137 134 133 125 114 110 110 112 110 112 132 138 136 129 122
327 267 252 252 261 256 235 112 356 66 104 113 125 119 157 160 172 178 171 175 181 182 171 164 159 147 143 148 145 140 138 137 135 131 129 132 125 106 104 86 88 103 114 125
233 253 267 278 283 237 300 175 166 152 96 78 109 50 233 184 159 173 174 186 183 179 173 167 163 159 153 154 156 152 148 141 138 127 103 85 70 65 55 47 40 40 119 140
249 259 273 290 291 161 272 197 143 135 118 85 98 177 262 198 166 177 183 188 191 180 173 168 169 165 163 164 159 147 148 142 137 123 114 115 115 116 143 167 63 358 24 93
261 275 285 281 258 152 170 122 100 104 110 79 35 93 286 180 182 189 191 191 191 183 175 173 176 173 167 161 154 153 149 145 142 130 126 119 115 126 117 80 62 39 25 46
260 269 251 242 263 150 133 83 57 50 68 49 305 110 272 217 199 187 189 186 186 182 176 175 175 166 163 162 156 151 148 148 142 132 128 129 129 123 104 83 75 48 27 26
296 296 285 249 346 42 103 88 35 3 19 274 260 178 252 236 193 181 187 187 183 178 175 175 173 171 171 169 163 158 152 150 146 137 139 141 138 132 133 132 119 101 65 46
244 283 266 235 188 184 189 141 159 205 208 271 303 243 260 250 190 179 182 184 182 179 179 180 179 177 176 173 168 161 158 157 155 150 153 151 143 140 146 152 148 148 160 170
198 247 265 245 219 150 167 179 167 136 120 99 289 290 310 142 158 174 178 180 185 185 184 184 182 178 174 172 172 167 162 161 164 163 159 156 156 156 164 168 160 166 182 181
177 230 274 271 59 344 164 155 94 109 139 183 268 261 230 201 189 191 187 187 192 190 187 184 180 175 172 170 168 164 164 168 172 170 166 164 168 171 173 169 169 177 188 185
158 174 297 14 154 222 87 91 112 123 149 153 210 258 219 200 194 192 199 196 193 189 187 182 176 170 165 162 163 166 170 169 171 172 168 163 172 172 165 164 177 184 196 203
155 131 214 272 272 250 168 168 145 146 194 164 173 256 243 193 192 192 197 199 194 185 178 172 167 163 163 165 168 171 174 174 176 174 170 172 173 168 167 179 191 192 201 214
121 115 88 336 332 338 295 186 151 136 132 160 173 250 246 194 192 195 195 193 183 172 165 163 163 167 171 172 172 174 174 175 173 168 167 170 174 176 185 195 200 202 208 222
116 124 161 196 226 231 245 234 178 140 157 198 211 221 228 205 199 197 190 183 170 168 166 166 170 173 174 173 173 174 175 172 168 166 167 175 185 190 196 201 206 212 214 222
110 136 193 220 230 207 231 242 220 202 193 196 225 209 218 209 200 192 180 167 163 167 169 172 174 176 174 174 175 173 173 173 169 167 175 189 194 195 196 201 212 219 222 228
107 149 145 315 295 291 280 265 253 245 224 223 224 236 231 205 178 170 166 163 166 173 177 178 178 176 178 178 178 174 174 175 170 174 188 194 191 194 201 209 216 217 224 232
140 140 139 240 292 343 291 250 231 238 257 196 202 228 191 163 173 176 172 170 172 177 179 180 182 182 182 181 176 176 178 174 174 184 193 195 194 199 207 208 202 212 223 226
142 134 144 170 71 238 251 261 206 157 27 21 16 207 163 178 183 180 173 174 178 179 181 185 183 182 181 176 172 169 167 171 179 189 199 199 195 199 202 200 211 221 220 225
137 137 131 141 190 262 291 312 310 127 36 17 38 24 92 98 88 80 202 182 185 185 184 186 183 177 171 171 169 162 168 175 182 194 201 200 193 195 199 208 221 223 221 234
75 104 126 139 179 236 255 286 296 106 62 341 34 67 67 85 120 236 234 192 185 182 181 178 170 162 166 173 163 162 174 180 194 200 200 195 189 192 202 214 221 220 221 236
61 72 146 174 212 252 253 289 354 129 217 285 15 86 101 146 205 222 214 199 185 177 175 167 161 167 178 171 163 171 180 195 203 195 190 189 192 198 207 217 222 225 230 241
179 167 192 162 198 247 270 9 151 191 216 266 48 59 82 296 291 241 189 199 182 169 165 162 164 175 174 167 167 177 195 203 188 180 184 193 201 209 210 214 230 229 228 242
185 187 184 190 214 248 251 205 206 162 154 206 331 295 127 102 246 218 197 189 178 169 166 165 168 171 172 173 174 187 202 182 170 176 193 204 210 219 220 219 230 237 234 237
267 140 126 183 253 231 225 206 179 160 151 152 148 108 102 96 73 302 48 121 144 151 161 159 157 163 174 180 185 192 183 169 168 189 206 212 219 236 242 238 232 235 240 241
231 167 161 196 206 179 251 220 175 140 114 107 87 72 80 89 84 106 82 86 94 91 109 130 150 165 175 177 188 189 174 166 178 199 213 221 228 241 253 252 242 237 236 234
225 193 177 202 202 179 204 207 168 121 98 95 91 76 61 78 88 91 93 99 100 92 90 98 108 130 155 158 172 178 169 168 180 211 229 234 241 248 252 263 276 259 250 256
Height
1509 1515 1518 1511 1508 1508 1508 1512 1515 1511 1507 1512 1517 1520 1520 1519 1521 1523 1524 1525 1527 1529 1530 1530 1532 1534 1536 1538 1540 1542 1543 1544 1546 1547 1548 1549 1550 1551 1552 1552 1553 1552 1552 1553
1514 1515 1502 1499 1499 1501 1504 1511 1514 1512 1508 1513 1519 1521 1519 1519 1520 1521 1522 1524 1526 1529 1530 1531 1532 1534 1536 1538 1540 1541 1543 1544 1546 1547 1548 1549 1550 1551 1551 1552 1552 1552 1551 1552
1514 1504 1495 1495 1498 1502 1505 1509 1510 1513 1513 1514 1520 1527 1522 1520 1520 1521 1522 1523 1525 1527 1528 1530 1532 1534 1536 1538 1539 1541 1542 1544 1545 1547 1548 1549 1549 1550 1551 1551 1551 1551 1551 1550
1504 1495 1494 1495 1497 1499 1509 1500 1501 1507 1518 1528 1524 1538 1526 1521 1521 1521 1521 1523 1524 1526 1528 1530 1532 1534 1535 1537 1539 1541 1542 1544 1545 1546 1547 1548 1548 1549 1550 1550 1550 1549 1549 1549
1502 1494 1494 1496 1494 1494 1502 1499 1502 1509 1519 1528 1528 1535 1531 1521 1522 1521 1521 1522 1523 1524 1527 1529 1531 1533 1535 1537 1539 1540 1542 1543 1544 1545 1546 1547 1547 1548 1548 1548 1548 1547 1547 1547
1495 1490 1490 1489 1487 1490 1495 1503 1510 1517 1525 1539 1532 1535 1533 1523 1518 1517 1518 1520 1521 1523 1526 1529 1531 1533 1535 1537 1538 1540 1541 1542 1543 1544 1545 1545 1546 1546 1546 1546 1546 1545 1545 1545
1501 1493 1487 1486 1491 1492 1496 1515 1533 1537 1545 1544 1529 1531 1528 1510 1508 1511 1514 1517 1519 1522 1525 1527 1530 1532 1533 1535 1537 1538 1540 1541 1542 1543 1544 1544 1544 1544 1544 1544 1544 1543 1543 1542
1512 1509 1489 1485 1488 1495 1497 1509 1532 1542 1546 1543 1531 1531 1518 1503 1502 1506 1510 1514 1517 1520 1522 1525 1527 1529 1531 1533 1535 1537 1538 1540 1541 1542 1542 1542 1542 1542 1542 1542 1542 1541 1541 1540
1509 1505 1484 1481 1481 1486 1496 1504 1507 1526 1535 1543 1536 1524 1511 1501 1503 1505 1508 1512 1514 1516 1519 1522 1525 1527 1529 1531 1533 1535 1537 1538 1539 1540 1540 1540 1540 1540 1540 1540 1539 1539 1538 1538
1494 1502 1487 1481 1482 1484 1488 1495 1511 1525 1540 1546 1538 1530 1523 1509 1505 1504 1506 1508 1510 1513 1516 1519 1522 1524 1527 1529 1531 1533 1535 1536 1537 1538 1538 1538 1538 1538 1538 1538 1537 1537 1536 1535
1486 1499 1495 1489 1491 1493 1492 1497 1506 1519 1524 1540 1546 1531 1499 1499 1498 1500 1501 1503 1505 1508 1512 1515 1518 1522 1524 1527 1529 1531 1533 1534 1535 1535 1536 1536 1536 1536 1535 1535 1535 1534 1533 1533
1483 1498 1505 1496 1486 1483 1486 1492 1501 1517 1522 1525 1531 1521 1485 1487 1490 1493 1495 1498 1501 1504 1508 1511 1515 1519 1522 1524 1526 1528 1530 1531 1532 1533 1533 1534 1533 1533 1533 1533 1532 1531 1531 1530
1481 1497 1513 1510 1503 1491 1489 1488 1493 1504 1515 1523 1527 1513 1481 1482 1485 1487 1490 1493 1497 1501 1505 1509 1513 1516 1518 1521 1523 1525 1527 1528 1529 1530 1531 1531 1531 1531 1530 1530 1529 1528 1528 1527
1477 1492 1504 1512 1504 1493 1491 1487 1488 1499 1513 1515 1509 1499 1486 1483 1483 1483 1485 1488 1492 1497 1501 1505 1509 1512 1515 1518 1520 1522 1523 1525 1526 1527 1528 1528 1528 1528 1527 1527 1526 1526 1525 1524
1477 1490 1489 1487 1483 1483 1484 1483 1482 1489 1492 1499 1493 1489 1481 1476 1477 1478 1481 1484 1489 1494 1498 1502 1505 1508 1511 1514 1516 1518 1520 1522 1523 1524 1524 1524 1524 1524 1524 1524 1523 1522 1521 1520
1477 1486 1486 1486 1480 1480 1481 1477 1476 1478 1479 1482 1481 1481 1470 1470 1473 1476 1479 1482 1486 1490 1494 1498 1501 1504 1507 1510 1512 1514 1516 1518 1519 1520 1521 1521 1521 1521 1521 1521 1520 1519 1518 1517
1480 1485 1492 1496 1485 1484 1489 1476 1474 1474 1472 1474 1479 1474 1467 1469 1471 1473 1476 1479 1482 1486 1490 1494 1497 1500 1503 1505 1508 1510 1513 1515 1516 1517 1517 1517 1518 1518 1518 1517 1516 1515 1514 1513
1478 1486 1493 1496 1494 1502 1484 1467 1467 1469 1470 1469 1467 1466 1465 1465 1466 1470 1473 1476 1479 1483 1486 1489 1493 1496 1499 1502 1505 1507 1509 1511 1512 1513 1514 1514 1514 1514 1514 1513 1512 1511 1510 1509
1472 1481 1492 1499 1500 1492 1477 1467 1467 1470 1474 1469 1468 1467 1465 1465 1468 1473 1474 1475 1477 1479 1482 1485 1488 1491 1495 1498 1501 1504 1505 1507 1508 1509 1509 1510 1510 1510 1510 1509 1509 1508 1506 1505
1473 1476 1488 1495 1498 1498 1481 1467 1463 1467 1478 1471 1467 1467 1468 1468 1477 1475 1473 1474 1476 1478 1481 1483 1486 1489 1492 1495 1498 1500 1501 1503 1503 1505 1505 1506 1506 1506 1506 1505 1504 1503 1502 1501
1481 1483 1488 1493 1495 1486 1472 1466 1465 1481 1480 1471 1468 1467 1468 1469 1471 1470 1471 1473 1475 1477 1479 1481 1483 1486 1488 1491 1494 1495 1497 1498 1500 1501 1502 1502 1502 1502 1501 1501 1500 1499 1498 1496
1482 1486 1488 1490 1494 1489 1468 1467 1471 1473 1469 1469 1468 1467 1467 1467 1468 1468 1469 1471 1473 1474 1476 1478 1480 1483 1485 1488 1490 1491 1493 1495 1496 1497 1497 1498 1498 1498 1497 1496 1495 1494 1493 1491
1476 1476 1479 1481 1481 1471 1467 1466 1466 1466 1467 1468 1468 1467 1467 1466 1468 1468 1468 1469 1471 1472 1473 1475 1477 1480 1482 1484 1486 1488 1490 1492 1492 1493 1493 1494 1494 1493 1493 1492 1490 1489 1488 1487
1470 1468 1473 1475 1471 1467 1466 1465 1465 1466 1466 1467 1468 1468 1469 1468 1468 1468 1468 1468 1469 1470 1471 1473 1475 1477 1479 1481 1484 1486 1487 1488 1489 1489 1489 1489 1489 1489 1488 1487 1486 1484 1483 1481
1466 1466 1470 1472 1469 1468 1466 1464 1464 1465 1466 1468 1468 1468 1469 1468 1468 1468 1468 1468 1469 1469 1470 1472 1473 1475 1477 1480 1482 1483 1484 1485 1485 1485 1485 1485 1484 1484 1483 1482 1480 1479 1478 1477
1460 1462 1465 1467 1463 1463 1463 1464 1464 1465 1467 1468 1468 1469 1469 1469 1469 1468 1468 1468 1469 1470 1470 1471 1473 1475 1477 1478 1479 1480 1481 1481 1481 1481 1481 1480 1479 1478 1477 1476 1474 1473 1472 1470